Location: Orin
(42.6533°N, 105.1925°W)
Time: 01:35:48
(UTC-07:00)

ISS - Visible Passes

Search period start: 01 December 2020 00:00
Search period end: 11 December 2020 00:00
Orbit: 418 x 420 km, 51.6° (Epoch: 01 December)

Date Brightness Start Highest point End Pass type
(mag) Time Alt. Az. Time Alt. Az. Time Alt. Az.
01 Dec -1.8 17:13:13 10° NW 17:15:33 17° N 17:17:45 11° NE visible
01 Dec -1.0 18:50:05 10° NW 18:50:43 14° NW 18:50:43 14° NW visible
02 Dec -2.3 18:02:34 10° NW 18:05:08 24° N 18:05:08 24° N visible
03 Dec -2.1 17:15:01 10° NW 17:17:37 20° NNE 17:19:38 13° NE visible
03 Dec -1.3 18:51:34 10° NW 18:52:37 19° NW 18:52:37 19° NW visible
04 Dec -3.3 18:04:01 10° NW 18:07:12 42° NNE 18:07:12 42° NNE visible
05 Dec -2.8 17:16:30 10° NW 17:19:31 30° NNE 17:21:56 14° E visible
05 Dec -1.6 18:53:11 10° WNW 18:54:56 26° W 18:54:56 26° W visible
06 Dec -3.8 18:05:30 10° WNW 18:08:51 80° SW 18:09:52 42° SE visible
07 Dec -3.8 17:17:54 10° NW 17:21:13 64° NNE 17:24:34 10° ESE visible
07 Dec -1.1 18:55:28 10° W 18:57:42 17° SW 18:58:08 16° SW visible
08 Dec -1.7 18:07:18 10° WNW 18:10:13 28° SW 18:13:07 10° SSE visible
09 Dec -2.6 17:19:26 10° WNW 17:22:40 47° SW 17:25:54 10° SE visible
